Погода в Могзне

Россия / Забайкальский край     51°44′26″N   111°58′09″E
темп.,
°C
ветер,
м/с
пор.,
м/с
влажн.,
%
обл.,
%
осадки,
мм/ч
давл.,
гПа
погр.,
м
25 февраля, чт
чт2500:00−22юз118777 0.0 102920
03:00−24ююз119338 0.0 102920
06:00−24ю119934 0.0 102820
09:00−19всв119467 0.0 102720
12:00−14з0182100 0.0 1024230
15:00−10юз248284 0.0 1020426
18:00−9ю228482 0.0 102129
21:00−13вюв118891 0.0 102221
26 февраля, пт
пт2600:00−14всв2291100 0.0 102321
03:00−13всв4892100 0.0 1020255
06:00−15всв3594100 0.0 1019122
09:00−15всв2395100 0.0 1018115
12:00−13всв2390100 0.0 1017350
15:00−10ссв2286100 0.1 1015440
18:00−11всв2394100 0.4 1014259
21:00−12ссв1297100 1.3 101664
27 февраля, сб
сб2700:00−13с1297100 1.1 101547
03:00−13зсз2596100 2.2 1015268
06:00−14з4995100 0.4 1017429
09:00−17з6128799 0.5 1021590
12:00−17зсз7127986 0.0 1023975
15:00−16зсз9147691 0.0 10261261
18:00−17зсз71274100 0.1 10301358
21:00−23зсз4128065 0.1 1035365
28 февраля, вс
вс2800:00−27з35890 0.0 103879
03:00−28зюз35870 0.0 104091
06:00−30зюз23950 0.0 104128
09:00−30юз22970 0.0 104320
12:00−21з36789 0.0 1040616
15:00−17зсз59604 0.0 10371401
18:00−18зсз367527 0.0 1037507
21:00−26зюз118430 0.0 104120
1 марта, пн
пн100:00−25юз128488 0.0 104320
03:00−28юз119979 0.0 104319
06:00−29юз1110070 0.0 104319
09:00−29юз119660 0.0 104220
12:00−20зюз248693 0.0 1037341
15:00−15з597295 0.1 10341750
18:00−17з4876100 0.1 1032856
21:00−24з228956 0.1 103420